Time,TemperatureF,DewpointF,PressureIn,WindDirection,WindDirectionDegrees,WindSpeedMPH,WindSpeedGustMPH,Humidity,HourlyPrecipIn,Conditions,Clouds,dailyrainin,SoftwareType,DateUTC
2013-11-06 00:12:00,31.0,12.0,30.40,WSW,252,17.0,-999.0,45,-99.99,,,-99.99,,2013-11-06 07:12:00,
2013-11-06 00:21:00,31.0,13.0,30.40,West,261,16.0,-999.0,47,-99.99,,,-99.99,,2013-11-06 07:21:00,
2013-11-06 00:42:00,32.0,14.0,30.40,WSW,255,18.0,-999.0,46,-99.99,,,-99.99,,2013-11-06 07:42:00,
2013-11-06 00:52:00,31.0,14.0,30.40,West,269,16.0,-999.0,48,-99.99,,,-99.99,,2013-11-06 07:52:00,
2013-11-06 01:11:00,31.0,14.0,30.40,West,262,17.0,-999.0,48,-99.99,,,-99.99,,2013-11-06 08:11:00,
2013-11-06 01:22:00,30.0,14.0,30.41,West,260,13.0,-999.0,50,-99.99,,,-99.99,,2013-11-06 08:22:00,
2013-11-06 01:42:00,31.0,15.0,30.40,West,265,11.0,-999.0,50,-99.99,,,-99.99,,2013-11-06 08:42:00,
2013-11-06 01:52:00,31.0,15.0,30.40,WSW,254,11.0,-999.0,51,-99.99,,,-99.99,,2013-11-06 08:52:00,
2013-11-06 02:11:00,31.0,15.0,30.40,SW,236,14.0,-999.0,50,-99.99,,,-99.99,,2013-11-06 09:11:00,
2013-11-06 02:22:00,30.0,15.0,30.41,WSW,238,16.0,-999.0,52,-99.99,,,-99.99,,2013-11-06 09:22:00,
2013-11-06 02:43:00,30.0,15.0,30.41,WSW,238,13.0,-999.0,53,-99.99,,,-99.99,,2013-11-06 09:43:00,
2013-11-06 02:53:00,30.0,15.0,30.42,SW,229,8.0,-999.0,53,-99.99,,,-99.99,,2013-11-06 09:53:00,
2013-11-06 03:23:00,30.0,15.0,30.42,West,262,6.0,-999.0,53,-99.99,,,-99.99,,2013-11-06 10:23:00,
2013-11-06 03:52:00,31.0,15.0,30.41,WSW,245,4.0,-999.0,52,-99.99,,,-99.99,,2013-11-06 10:52:00,
2013-11-06 04:22:00,30.0,15.0,30.42,West,278,5.0,-999.0,53,-99.99,,,-99.99,,2013-11-06 11:22:00,
2013-11-06 04:42:00,31.0,15.0,30.42,WSW,240,8.0,-999.0,51,-99.99,,,-99.99,,2013-11-06 11:42:00,
2013-11-06 04:52:00,30.0,15.0,30.42,SW,227,8.0,-999.0,53,-99.99,,,-99.99,,2013-11-06 11:52:00,
2013-11-06 05:22:00,28.0,14.0,30.42,SW,227,7.0,-999.0,55,-99.99,,,-99.99,,2013-11-06 12:22:00,
2013-11-06 05:41:00,27.0,13.0,30.41,SW,223,10.0,-999.0,56,-99.99,,,-99.99,,2013-11-06 12:41:00,
2013-11-06 05:52:00,28.0,14.0,30.41,SW,231,11.0,-999.0,56,-99.99,,,-99.99,,2013-11-06 12:52:00,
2013-11-06 06:12:00,28.0,14.0,30.41,SW,229,12.0,-999.0,54,-99.99,,,-99.99,,2013-11-06 13:12:00,
2013-11-06 06:21:00,28.0,14.0,30.41,SW,222,9.0,-999.0,54,-99.99,,,-99.99,,2013-11-06 13:21:00,
2013-11-06 06:42:00,28.0,14.0,30.41,WSW,238,9.0,-999.0,54,-99.99,,,-99.99,,2013-11-06 13:42:00,
2013-11-06 06:52:00,28.0,13.0,30.42,WSW,254,7.0,-999.0,53,-99.99,,,-99.99,,2013-11-06 13:52:00,
2013-11-06 07:22:00,29.0,13.0,30.43,WSW,253,8.0,-999.0,51,-99.99,,,-99.99,,2013-11-06 14:22:00,
2013-11-06 07:42:00,29.0,14.0,30.43,WSW,248,6.0,-999.0,52,-99.99,,,-99.99,,2013-11-06 14:42:00,
2013-11-06 07:52:00,29.0,14.0,30.44,West,269,4.0,-999.0,52,-99.99,,,-99.99,,2013-11-06 14:52:00,
2013-11-06 08:11:00,29.0,13.0,30.45,WSW,248,3.0,-999.0,51,-99.99,,,-99.99,,2013-11-06 15:11:00,
2013-11-06 08:22:00,30.0,14.0,30.45,WSW,246,0.0,-999.0,51,-99.99,,,-99.99,,2013-11-06 15:22:00,
2013-11-06 08:43:00,31.0,14.0,30.46,South,184,0.0,-999.0,49,-99.99,,,-99.99,,2013-11-06 15:43:00,
2013-11-06 08:53:00,31.0,13.0,30.46,South,182,0.0,-999.0,47,-99.99,,,-99.99,,2013-11-06 15:53:00,
2013-11-06 09:23:00,34.0,15.0,30.46,West,262,2.0,-999.0,46,-99.99,,,-99.99,,2013-11-06 16:23:00,
2013-11-06 09:42:00,36.0,17.0,30.46,WSW,256,2.0,-999.0,46,-99.99,,,-99.99,,2013-11-06 16:42:00,
2013-11-06 10:22:00,39.0,20.0,30.45,West,265,11.0,-999.0,46,-99.99,,,-99.99,,2013-11-06 17:22:00,
2013-11-06 10:43:00,40.0,21.0,30.45,West,274,12.0,-999.0,46,-99.99,,,-99.99,,2013-11-06 17:43:00,
2013-11-06 10:52:00,40.0,20.0,30.45,WSW,247,12.0,-999.0,44,-99.99,,,-99.99,,2013-11-06 17:52:00,
2013-11-06 11:12:00,40.0,20.0,30.45,SSW,212,9.0,-999.0,45,-99.99,,,-99.99,,2013-11-06 18:12:00,
2013-11-06 11:22:00,41.0,21.0,30.45,West,261,7.0,-999.0,44,-99.99,,,-99.99,,2013-11-06 18:22:00,
2013-11-06 11:42:00,43.0,20.0,30.45,SW,215,7.0,-999.0,40,-99.99,,,-99.99,,2013-11-06 18:42:00,
2013-11-06 11:52:00,44.0,21.0,30.44,SW,222,7.0,-999.0,40,-99.99,,,-99.99,,2013-11-06 18:52:00,
2013-11-06 12:21:00,46.0,21.0,30.43,SSW,212,8.0,-999.0,36,-99.99,,,-99.99,,2013-11-06 19:21:00,
2013-11-06 12:42:00,47.0,20.0,30.43,WSW,250,3.0,-999.0,34,-99.99,,,-99.99,,2013-11-06 19:42:00,
2013-11-06 12:52:00,47.0,19.0,30.42,SW,223,10.0,-999.0,33,-99.99,,,-99.99,,2013-11-06 19:52:00,
2013-11-06 13:22:00,48.0,17.0,30.40,WNW,285,22.0,-999.0,29,-99.99,,,-99.99,,2013-11-06 20:22:00,
2013-11-06 13:52:00,47.0,19.0,30.41,WNW,288,20.0,-999.0,32,-99.99,,,-99.99,,2013-11-06 20:52:00,
2013-11-06 14:11:00,45.0,18.0,30.41,NW,309,20.0,-999.0,34,-99.99,,,-99.99,,2013-11-06 21:11:00,
2013-11-06 14:21:00,45.0,17.0,30.41,NW,312,16.0,-999.0,32,-99.99,,,-99.99,,2013-11-06 21:21:00,
2013-11-06 14:54:00,47.0,17.0,30.41,WNW,293,22.0,-999.0,30,-99.99,,,-99.99,,2013-11-06 21:54:00,
2013-11-06 15:13:00,47.0,17.0,30.42,NW,308,21.0,-999.0,30,-99.99,,,-99.99,,2013-11-06 22:13:00,
2013-11-06 15:23:00,47.0,19.0,30.42,WNW,298,20.0,-999.0,32,-99.99,,,-99.99,,2013-11-06 22:23:00,
2013-11-06 15:43:00,47.0,19.0,30.42,WNW,296,21.0,-999.0,32,-99.99,,,-99.99,,2013-11-06 22:43:00,
2013-11-06 15:53:00,46.0,18.0,30.42,WNW,288,20.0,-999.0,32,-99.99,,,-99.99,,2013-11-06 22:53:00,
2013-11-06 16:22:00,45.0,17.0,30.42,WNW,296,21.0,-999.0,32,-99.99,,,-99.99,,2013-11-06 23:22:00,
2013-11-06 16:53:00,43.0,16.0,30.43,WNW,296,24.0,-999.0,33,-99.99,,,-99.99,,2013-11-06 23:53:00,
2013-11-06 17:11:00,42.0,16.0,30.43,WNW,293,24.0,-999.0,35,-99.99,,,-99.99,,2013-11-07 00:11:00,
2013-11-06 17:21:00,42.0,18.0,30.44,WNW,284,23.0,-999.0,37,-99.99,,,-99.99,,2013-11-07 00:21:00,
2013-11-06 17:42:00,41.0,17.0,30.44,WNW,292,22.0,-999.0,38,-99.99,,,-99.99,,2013-11-07 00:42:00,
2013-11-06 17:52:00,41.0,17.0,30.45,WNW,287,21.0,-999.0,38,-99.99,,,-99.99,,2013-11-07 00:52:00,
2013-11-06 18:01:00,41.0,17.0,30.45,WNW,287,21.0,-999.0,38,-99.99,,,-99.99,,2013-11-07 01:01:00,
2013-11-06 18:21:00,40.0,18.0,30.47,WNW,300,17.0,-999.0,41,-99.99,,,-99.99,,2013-11-07 01:21:00,
2013-11-06 18:32:00,40.0,18.0,30.47,WNW,300,17.0,-999.0,41,-99.99,,,-99.99,,2013-11-07 01:32:00,
2013-11-06 18:42:00,40.0,18.0,30.47,WNW,300,17.0,-999.0,41,-99.99,,,-99.99,,2013-11-07 01:42:00,
2013-11-06 18:52:00,39.0,18.0,30.49,NW,311,14.0,-999.0,43,-99.99,,,-99.99,,2013-11-07 01:52:00,
2013-11-06 19:11:00,39.0,19.0,30.48,WNW,288,15.0,-999.0,44,-99.99,,,-99.99,,2013-11-07 02:11:00,
2013-11-06 19:21:00,39.0,19.0,30.48,WNW,288,15.0,-999.0,44,-99.99,,,-99.99,,2013-11-07 02:21:00,
2013-11-06 19:53:00,39.0,20.0,30.48,NW,308,19.0,-999.0,46,-99.99,,,-99.99,,2013-11-07 02:53:00,
2013-11-06 20:21:00,39.0,19.0,30.50,WNW,301,15.0,-999.0,45,-99.99,,,-99.99,,2013-11-07 03:21:00,
2013-11-06 20:44:00,39.0,20.0,30.50,WNW,290,12.0,-999.0,46,-99.99,,,-99.99,,2013-11-07 03:44:00,
2013-11-06 20:54:00,38.0,19.0,30.51,WNW,298,11.0,-999.0,46,-99.99,,,-99.99,,2013-11-07 03:54:00,
2013-11-06 21:13:00,38.0,20.0,30.51,WNW,300,9.0,-999.0,48,-99.99,,,-99.99,,2013-11-07 04:13:00,
2013-11-06 21:24:00,37.0,20.0,30.52,WNW,294,10.0,-999.0,49,-99.99,,,-99.99,,2013-11-07 04:24:00,
2013-11-06 21:43:00,37.0,20.0,30.53,WNW,302,9.0,-999.0,50,-99.99,,,-99.99,,2013-11-07 04:43:00,
2013-11-06 21:53:00,37.0,21.0,30.53,WNW,286,7.0,-999.0,51,-99.99,,,-99.99,,2013-11-07 04:53:00,
2013-11-06 22:13:00,37.0,21.0,30.53,WNW,296,5.0,-999.0,51,-99.99,,,-99.99,,2013-11-07 05:13:00,
2013-11-06 22:23:00,37.0,21.0,30.53,WNW,285,0.0,-999.0,51,-99.99,,,-99.99,,2013-11-07 05:23:00,
2013-11-06 22:44:00,37.0,21.0,30.53,WNW,288,0.0,-999.0,51,-99.99,,,-99.99,,2013-11-07 05:44:00,
2013-11-06 22:54:00,35.0,20.0,30.52,SE,145,0.0,-999.0,54,-99.99,,,-99.99,,2013-11-07 05:54:00,
2013-11-06 23:23:00,32.0,20.0,30.52,SSE,153,0.0,-999.0,60,-99.99,,,-99.99,,2013-11-07 06:23:00,
2013-11-06 23:52:00,32.0,20.0,30.52,SE,127,1.0,-999.0,61,-99.99,,,-99.99,,2013-11-07 06:52:00,